Location: Feydey
(46.3431°N, 7.0106°E)
Time: 15:34:16
(UTC+00:00)

ERS-1 Rocket - Pass Details

Date: 20 June 2021
Orbit: 752 x 758 km, 98.4° (Epoch: 03 August)

Event Time Altitude Azimuth Distance (km) Brightness Sun altitude
Exits shadow 20:24:09 10° 136° (SE) 2,286 4.8 -8.1°
Reaches altitude 10° 20:24:09 10° 136° (SE) 2,284 4.8 -8.1°
Maximum altitude 20:28:49 40° 68° (ENE) 1,107 3.7 -8.7°
Drops below altitude 10° 20:33:32 10° 360° (N) 2,300 6.3 -9.2°
Sets 20:35:56 0° 353° (N) 3,229 7.3 -9.5°
